[[{"header":{"parameterUnit":"m.s-1","parameterCategory":1,"la1":30.2991,"la2":30.254,"lo1":-89.0895,"lo2":-89.0444,"dy":0.0017,"dx":0.0017,"nx":28,"ny":28,"refTime":"2025-11-26T03:00:00:Z","depth":0,"parameterNumber":2,"parameterNumberName":"U-component_of_WINDS"},"data":[0,0,0,0,0,0,0,0,0,0,0,0,0,0,0,0,0,0,0,0,0,0,0,0,0,0,0,0,0,0,0,0,0,0,0,0,0,0,0,0,0,0,0,0,0,0,0,0,0,0,0,0,0,0,0,0,0,0,-0.2027,-0.2028,0,-0.2053,-0.2053,-0.2053,-0.2019,-0.2017,-0.2016,-0.2015,-0.2044,-0.2045,-0.2047,0,0,0,0,0,0,0,0,0,0,0,0,0,-0.195,-0.1952,-0.2027,-0.2028,-0.2028,-0.2053,-0.2053,-0.2053,-0.2019,-0.2017,-0.2016,-0.2014,-0.2043,-0.2045,-0.2048,0,0,0,0,0,0,0,0,0,0,0,0,0,-0.1981,-0.1952,-0.2027,-0.2014,-0.2013,-0.2053,-0.2053,-0.2054,-0.2019,-0.2017,-0.2016,-0.2014,-0.2042,-0.2045,-0.2048,-0.2103,0,0,-0.2057,-0.2058,0,0,0,0,0,0,0,0,-0.1979,-0.1983,-0.2015,-0.2015,-0.2014,-0.2031,-0.2036,-0.207,-0.202,-0.2017,-0.2015,-0.2013,-0.2041,-0.2044,-0.2053,-0.2104,-0.2106,-0.2057,-0.2059,-0.206,-0.2061,0,0,0,0,0,0,0,-0.1977,-0.1982,-0.2038,-0.2016,-0.2015,-0.2007,-0.2009,-0.2043,-0.2039,-0.2017,-0.2015,-0.2018,-0.204,-0.205,-0.2053,-0.2106,-0.2057,-0.2059,-0.2061,-0.2062,-0.2204,-0.2205,0,0,0,0,0,0,-0.1976,-0.1981,-0.2037,-0.2038,-0.1991,-0.201,-0.2012,-0.2027,-0.2039,-0.2039,-0.2019,-0.2016,-0.2046,-0.205,-0.2054,-0.212,-0.206,-0.2063,-0.2064,-0.2202,-0.2204,-0.2206,0,0,0,0,0,0,-0.1975,-0.1981,-0.2036,-0.2009,-0.2015,-0.2013,-0.203,-0.2029,-0.2039,-0.2041,-0.204,-0.203,-0.2045,-0.205,-0.2091,-0.212,-0.2064,-0.2067,-0.2199,-0.2202,-0.2205,-0.2251,0,0,0,0,0,0,-0.1973,-0.1981,-0.2002,-0.2009,-0.2017,-0.2072,-0.2032,-0.203,-0.2043,-0.2039,-0.205,-0.2051,-0.2044,-0.2087,-0.2094,-0.2123,-0.2069,-0.2197,-0.2201,-0.2204,-0.2247,-0.2255,-0.2263,0,0,0,0,0,-0.197,-0.2015,-0.2003,-0.201,-0.2043,-0.2074,-0.2078,-0.2068,-0.2046,-0.2067,-0.2068,-0.205,-0.2115,-0.2091,-0.2099,-0.2129,-0.2195,-0.2199,-0.2204,-0.2244,-0.2254,-0.2262,0,0,0,0,0,0,-0.2012,-0.2016,-0.2003,-0.2051,-0.2062,-0.2068,-0.2094,-0.208,-0.2098,-0.2094,-0.2081,-0.2084,-0.2128,-0.2132,-0.2106,-0.2183,-0.2151,-0.2158,-0.2179,-0.2189,-0.2196,-0.2195,-0.2071,0,0,0,0,0,-0.2027,-0.2051,-0.2053,-0.2096,-0.2102,-0.2097,-0.211,-0.2102,-0.2113,-0.2118,-0.2122,-0.2134,-0.2157,-0.2173,-0.2194,-0.2247,-0.2249,-0.2271,-0.2279,-0.2285,-0.2292,-0.2319,-0.233,-0.2221,-0.2221,-0.2221,0,0,-0.2058,-0.2063,-0.2079,-0.2104,-0.2112,-0.2138,-0.2101,-0.2131,-0.215,-0.2122,-0.2161,-0.2164,-0.2177,-0.2224,-0.2245,-0.2229,-0.2321,-0.2291,-0.2296,-0.2299,-0.2325,-0.2336,-0.2345,-0.2224,-0.2224,-0.2223,0,0,-0.2129,-0.2134,-0.217,-0.2178,-0.2189,-0.2186,-0.2194,-0.2201,-0.2202,-0.224,-0.222,-0.2243,-0.2283,-0.2293,-0.2303,-0.2374,-0.2359,-0.2382,-0.2423,-0.245,-0.2459,-0.2466,-0.2493,-0.2502,-0.2387,-0.2388,-0.2388,0,-0.2167,-0.2205,-0.2191,-0.2222,-0.2233,-0.2207,-0.2244,-0.2252,-0.227,-0.2279,-0.2261,-0.2309,-0.2316,-0.2365,-0.2382,-0.2391,-0.2401,-0.2382,-0.2459,-0.2466,-0.2473,-0.2498,-0.2508,-0.239,-0.239,-0.239,-0.2389,0,-0.2251,-0.2277,-0.2305,-0.2322,-0.2336,-0.237,-0.2361,-0.2377,-0.2367,-0.2365,-0.2404,-0.2411,-0.2433,-0.2443,-0.2434,-0.249,-0.248,-0.246,-0.2429,-0.2486,-0.251,-0.2519,-0.2394,-0.2393,-0.2392,-0.2392,0,0,-0.2352,-0.2359,-0.2369,-0.2376,-0.2386,-0.2406,-0.2438,-0.2458,-0.2472,-0.2485,-0.2512,-0.2545,-0.2526,-0.2538,-0.2529,-0.2552,-0.2609,-0.2529,-0.253,-0.2545,-0.2672,-0.2689,-0.27,-0.2598,-0.26,-0.2601,-0.2672,0,-0.2423,-0.2477,-0.2465,-0.2519,-0.2543,-0.2518,-0.2545,-0.2554,-0.2553,-0.2573,-0.2572,-0.2596,-0.2569,-0.2575,-0.2598,-0.2598,-0.2635,-0.2592,-0.2624,-0.2625,-0.2623,-0.2712,-0.2729,-0.2796,-0.2681,-0.2682,-0.2683,0,-0.2514,-0.2529,-0.2585,-0.2589,-0.2599,-0.2624,-0.2641,-0.2661,-0.267,-0.2667,-0.2679,-0.2664,-0.2696,-0.2662,-0.2705,-0.2676,-0.2688,-0.269,-0.2692,-0.2696,-0.2659,-0.272,-0.2817,-0.2828,-0.2697,-0.2696,-0.2695,0,-0.2583,-0.2617,-0.2654,-0.2661,-0.2667,-0.2685,-0.2688,-0.2695,-0.2708,-0.2723,-0.2731,-0.2749,-0.276,-0.2775,-0.2766,-0.2742,-0.2811,-0.2776,-0.281,-0.2811,-0.2828,-0.2828,-0.293,-0.2833,-0.2833,-0.2833,-0.2832,0,-0.2665,-0.2701,-0.2685,-0.2709,-0.2748,-0.2733,-0.2772,-0.2772,-0.2778,-0.2802,-0.278,-0.2803,-0.2789,-0.281,-0.2803,-0.284,-0.2845,-0.2844,-0.2842,-0.2847,-0.2847,-0.2856,-0.2852,-0.2835,-0.2835,-0.2834,-0.2834,0,-0.275,-0.2741,-0.2781,-0.2782,-0.2783,-0.2812,-0.2813,-0.2835,-0.2831,-0.286,-0.2866,-0.286,-0.2884,-0.2876,-0.2901,-0.2896,-0.2944,-0.2935,-0.2941,-0.294,-0.2975,-0.2972,-0.3088,-0.3102,-0.2994,-0.2995,-0.2996,0,-0.2804,-0.2831,-0.2834,-0.2848,-0.2852,-0.2874,-0.2886,-0.2872,-0.2886,-0.2897,-0.2918,-0.2939,-0.2956,-0.2994,-0.2993,-0.3012,-0.3004,-0.3043,-0.3007,-0.3011,-0.3006,-0.3005,-0.3008,-0.3051,-0.3053,-0.3054,-0.3054,0,-0.2901,-0.2895,-0.2913,-0.2929,-0.2944,-0.2956,-0.2967,-0.2979,-0.2965,-0.2982,-0.3005,-0.3017,-0.3042,-0.3064,-0.3081,-0.3085,-0.3068,-0.3065,-0.3074,-0.3081,-0.3083,-0.3083,-0.2963,-0.3063,-0.3062,-0.3062,-0.3061,-0.3061,-0.2973,-0.2995,-0.3001,-0.3021,-0.3027,-0.3037,-0.3058,-0.3055,-0.3074,-0.3093,-0.3082,-0.311,-0.3117,-0.3137,-0.3143,-0.3164,-0.3149,-0.3162,-0.3166,-0.317,-0.3175,-0.3078,-0.3167,-0.3167,-0.3166,-0.3166,-0.3166,0,-0.307,-0.3071,-0.309,-0.3105,-0.3121,-0.3101,-0.3111,-0.3127,-0.315,-0.3158,-0.3174,-0.32,-0.3221,-0.3219,-0.3238,-0.3255,-0.3248,-0.3261,-0.326,-0.3261,-0.3186,-0.3177,-0.3266,-0.3266,-0.3266,-0.3266,-0.3266,-0.3266,-0.3122,-0.3159,-0.3153,-0.3192,-0.3193,-0.3219,-0.3226,-0.3235,-0.3241,-0.3271,-0.3288,-0.3286,-0.329,-0.3308,-0.3326,-0.3325,-0.3333,-0.335,-0.3346,-0.3277,-0.3267,-0.3257,-0.3249,-0.3351,-0.3351,-0.3419,-0.342,-0.342]},{"header":{"parameterUnit":"m.s-1","parameterCategory":1,"la1":30.2991,"la2":30.254,"lo1":-89.0895,"lo2":-89.0444,"dy":0.0017,"dx":0.0017,"nx":28,"ny":28,"refTime":"2025-11-26T03:00:00:Z","depth":0,"parameterNumber":3,"parameterNumberName":"V-component_of_WINDS"},"data":[0,0,0,0,0,0,0,0,0,0,0,0,0,0,0,0,0,0,0,0,0,0,0,0,0,0,0,0,0,0,0,0,0,0,0,0,0,0,0,0,0,0,0,0,0,0,0,0,0,0,0,0,0,0,0,0,0,0,-6.5298,-6.53,0,-6.5446,-6.5448,-6.545,-6.5342,-6.5337,-6.5332,-6.5328,-6.5473,-6.5481,-6.5489,0,0,0,0,0,0,0,0,0,0,0,0,0,-6.4917,-6.4925,-6.5298,-6.53,-6.5302,-6.5446,-6.5448,-6.545,-6.5343,-6.5337,-6.5331,-6.5326,-6.547,-6.548,-6.549,0,0,0,0,0,0,0,0,0,0,0,0,0,-6.5075,-6.4927,-6.5298,-6.5266,-6.5265,-6.5446,-6.5448,-6.545,-6.5344,-6.5337,-6.533,-6.5323,-6.5467,-6.5479,-6.5491,-6.571,0,0,-6.5529,-6.5535,0,0,0,0,0,0,0,0,-6.5066,-6.5089,-6.5269,-6.5269,-6.5267,-6.5368,-6.5366,-6.5537,-6.5346,-6.5314,-6.5328,-6.5319,-6.5443,-6.5457,-6.55,-6.5717,-6.5723,-6.553,-6.5538,-6.5543,-6.5547,0,0,0,0,0,0,0,-6.5056,-6.5082,-6.5356,-6.5271,-6.5271,-6.5242,-6.5257,-6.5398,-6.5416,-6.5316,-6.5308,-6.5328,-6.5442,-6.5489,-6.5503,-6.5725,-6.553,-6.5541,-6.5549,-6.5553,-6.6128,-6.6135,0,0,0,0,0,0,-6.5049,-6.5074,-6.5352,-6.5361,-6.5148,-6.5255,-6.5271,-6.5343,-6.5414,-6.5419,-6.5334,-6.5322,-6.5471,-6.5489,-6.5508,-6.5769,-6.5543,-6.5555,-6.5562,-6.612,-6.6129,-6.6138,0,0,0,0,0,0,-6.5041,-6.5074,-6.5346,-6.5216,-6.5248,-6.5269,-6.535,-6.535,-6.5397,-6.5428,-6.543,-6.5379,-6.5466,-6.549,-6.5661,-6.5772,-6.556,-6.5572,-6.6111,-6.6123,-6.6133,-6.6292,0,0,0,0,0,0,-6.503,-6.5072,-6.5157,-6.5219,-6.5256,-6.5499,-6.5357,-6.5358,-6.5419,-6.5406,-6.5471,-6.5475,-6.5462,-6.5643,-6.5673,-6.5785,-6.5581,-6.6101,-6.6116,-6.613,-6.6277,-6.6308,-6.6335,0,0,0,0,0,-6.5017,-6.5194,-6.5162,-6.5196,-6.5362,-6.5506,-6.5527,-6.551,-6.5429,-6.5513,-6.5533,-6.5473,-6.5755,-6.5661,-6.5694,-6.5812,-6.6094,-6.6112,-6.6129,-6.6265,-6.6302,-6.6334,0,0,0,0,0,0,-6.5143,-6.5202,-6.5166,-6.537,-6.5434,-6.5487,-6.5593,-6.555,-6.5638,-6.5621,-6.5595,-6.561,-6.579,-6.5817,-6.5712,-6.6027,-6.5911,-6.5936,-6.6003,-6.6039,-6.6067,-6.6057,-6.5592,0,0,0,0,0,-6.5195,-6.5309,-6.5353,-6.5528,-6.5562,-6.5573,-6.5634,-6.5616,-6.5681,-6.5707,-6.5739,-6.5802,-6.5905,-6.5973,-6.6069,-6.628,-6.6293,-6.6378,-6.6406,-6.6429,-6.6452,-6.6565,-6.6603,-6.6195,-6.6195,-6.6195,0,0,-6.5303,-6.5349,-6.5422,-6.5554,-6.5602,-6.5718,-6.5596,-6.5724,-6.581,-6.5725,-6.589,-6.5916,-6.5984,-6.6176,-6.6262,-6.6205,-6.6567,-6.6452,-6.647,-6.648,-6.6587,-6.6626,-6.666,-6.6207,-6.6205,-6.6203,0,0,-6.5559,-6.5605,-6.5756,-6.5807,-6.5882,-6.5887,-6.5924,-6.5984,-6.5999,-6.6164,-6.6103,-6.6203,-6.6381,-6.6432,-6.6482,-6.6758,-6.6706,-6.6789,-6.6939,-6.705,-6.7082,-6.711,-6.7209,-6.7245,-6.6811,-6.6812,-6.6812,0,-6.5682,-6.5858,-6.5839,-6.5973,-6.6032,-6.5963,-6.6115,-6.6164,-6.6266,-6.6308,-6.6242,-6.6464,-6.6505,-6.6709,-6.6776,-6.6819,-6.6858,-6.6782,-6.7079,-6.7108,-6.7134,-6.7227,-6.7265,-6.6821,-6.682,-6.6819,-6.6818,0,-6.6006,-6.6129,-6.6241,-6.6344,-6.6416,-6.6558,-6.6559,-6.6634,-6.6609,-6.6622,-6.6789,-6.6837,-6.6941,-6.6988,-6.6964,-6.7188,-6.715,-6.7083,-6.6966,-6.7183,-6.727,-6.7306,-6.6835,-6.6832,-6.6829,-6.6827,0,0,-6.6346,-6.6437,-6.6479,-6.6524,-6.6602,-6.6695,-6.6833,-6.6938,-6.7002,-6.7074,-6.7189,-6.7341,-6.7279,-6.7336,-6.7317,-6.7415,-6.763,-6.7335,-6.7336,-6.7388,-6.788,-6.7931,-6.7973,-6.7596,-6.7603,-6.7608,-6.7874,0,-6.6606,-6.685,-6.6837,-6.7065,-6.7177,-6.7113,-6.7233,-6.7293,-6.7308,-6.7404,-6.7418,-6.7528,-6.7438,-6.7471,-6.7565,-6.7585,-6.7729,-6.7565,-6.7701,-6.7706,-6.7687,-6.8018,-6.8072,-6.8321,-6.7908,-6.7914,-6.7918,0,-6.6942,-6.7029,-6.7269,-6.733,-6.7376,-6.7485,-6.758,-6.7673,-6.7738,-6.7742,-6.7806,-6.7772,-6.7909,-6.7789,-6.7977,-6.7867,-6.7921,-6.7939,-6.7948,-6.7961,-6.7826,-6.804,-6.84,-6.8438,-6.7972,-6.7967,-6.7963,0,-6.7167,-6.7343,-6.7509,-6.755,-6.7625,-6.7703,-6.7737,-6.7796,-6.786,-6.7942,-6.7983,-6.8079,-6.8132,-6.8207,-6.8198,-6.8111,-6.8391,-6.8269,-6.8397,-6.8397,-6.8459,-6.8455,-6.8833,-6.8494,-6.8493,-6.8492,-6.8491,0,-6.7459,-6.7609,-6.7611,-6.7714,-6.7878,-6.7861,-6.8024,-6.8049,-6.8102,-6.8207,-6.8156,-6.8255,-6.8238,-6.8337,-6.8331,-6.8488,-6.8512,-6.8518,-6.8515,-6.8523,-6.8523,-6.8559,-6.8542,-6.8502,-6.85,-6.8498,-6.8496,0,-6.7738,-6.7746,-6.7923,-6.798,-6.7998,-6.8117,-6.8165,-6.8261,-6.8272,-6.8405,-6.8435,-6.8452,-6.8565,-6.8565,-6.8693,-6.8689,-6.8882,-6.8858,-6.8861,-6.8856,-6.8984,-6.8973,-6.9399,-6.9454,-6.9079,-6.9082,-6.9085,0,-6.7925,-6.8038,-6.8109,-6.8176,-6.8217,-6.8326,-6.8392,-6.8378,-6.8448,-6.8531,-6.8617,-6.8726,-6.8813,-6.8997,-6.9019,-6.9117,-6.9095,-6.9238,-6.911,-6.9115,-6.9098,-6.9092,-6.9103,-6.9264,-6.9268,-6.9271,-6.9274,0,-6.8255,-6.8253,-6.8351,-6.8451,-6.8531,-6.8608,-6.8679,-6.8737,-6.8731,-6.8812,-6.8929,-6.8996,-6.9129,-6.9237,-6.9332,-6.9364,-6.9319,-6.9314,-6.9349,-6.9359,-6.9356,-6.936,-6.893,-6.9305,-6.9302,-6.9299,-6.9298,-6.9296,-6.8493,-6.8592,-6.8657,-6.8768,-6.882,-6.8888,-6.8981,-6.9005,-6.9103,-6.9211,-6.9196,-6.9326,-6.9388,-6.951,-6.9552,-6.9652,-6.9601,-6.9652,-6.9665,-6.9677,-6.9692,-6.934,-6.9669,-6.9668,-6.9667,-6.9666,-6.9666,0,-6.8821,-6.886,-6.8963,-6.9065,-6.9152,-6.9103,-6.9179,-6.9254,-6.937,-6.9432,-6.9519,-6.9653,-6.9758,-6.9789,-6.989,-6.9965,-6.9946,-6.9992,-6.9986,-6.9995,-6.9731,-6.9691,-7.0005,-7.0005,-7.0005,-7.0005,-7.0005,-7.0005,-6.9002,-6.9167,-6.9173,-6.9362,-6.9399,-6.9528,-6.9576,-6.9637,-6.9687,-6.984,-6.9928,-6.9948,-6.9998,-7.0102,-7.0196,-7.0202,-7.0242,-7.0296,-7.0294,-7.0047,-7.0013,-6.9981,-6.9943,-7.0305,-7.0305,-7.0549,-7.0551,-7.0553]}]]